www.pogodaiklimat.ru

Погода и климат >> Архив погоды >> Россия >> Якутия >> Оймякон


АРХИВ ПОГОДЫ в Оймяконе

Время (UTC), дата Ветер
(напр.,м/с)
 
Видим.   Явления Облачность Т
(С)
Тd
(С)
f
(%)
Тe
(С)
Тes
(С)
Комфортность P
(гПа)
Po
(гПа)
Тmin
(С)
Tmax
(С)
R
(мм)
R24
(мм)
S
(см)
00 18.05 Ю 5 50 км 10/5 1000 м
[Sc Ac trans Cs]
+7.1 -5.0 42 +4 +5 по сезону 993.7 908.6
03 18.05 Ю 5 50 км 10/5 1000 м
[Sc Ac trans Cs]
+7.1 -5.0 42 +4 +5 по сезону 993.7 908.6
06 18.05 Ю 7-11
{11}
50 км слабый ливневой дождь 10/8 1000 м
[Cb cap As trans]
+6.6 -4.3 46 +2 +3 холодно 993.1 907.8
09 18.05 ЮЗ 2 20 км слабый ливневой дождь 10/8 1000 м
[Cb cap As trans]
+3.2 +0.3 81 0 0 прохладно 993.5 907.4 +8.6 0.4
12 18.05 Ю 2 10 км слабый ливневой дождь со снегом 10/10 1000 м
[Cb cap]
+1.0 +0.5 96 -3 -3 прохладно 994.6 907.6
15 18.05 З 3 4000 м слабый снег {ливн. осадки} 10/0 1000 м
[As op]
+0.3 -0.3 96 -5 -5 прохладно 995.2 908.0
18 18.05 З 5 2000 м снег {ливн. осадки} 10/0 1000 м
[As op]
-0.6 -1.2 96 -7 -7 по сезону 996.6 909.0
21 18.05 СЗ 2 50 км {снег} 9/8 1000 м
[Sc Ac trans Ci fib]
0.0 -2.1 86 -4 -3 прохладно 997.2 909.6 -1.0 5 4
00 19.05 З 5 50 км {снег} ?/? +1.7 -5.6 58 -3 -3 холодно 996.4 909.4
03 19.05 СЗ 2 50 км 10/3 1000 м
[Cu Sc Ac und]
+3.5 -8.1 42 +1 +4 прохладно 996.1 909.7
06 19.05 СЗ 5 50 км 10/4 1000 м
[Cb cap Ac trans Ci fib]
+4.6 -7.2 42 +1 +2 холодно 995.6 909.5
09 19.05 СЗ 6
{10}
50 км 10/1 1000 м
[Sc diur, vesp Ac As]
+3.2 -8.6 42 -2 -1 холодно 997.3 910.6 +5.7
12 19.05 СЗ 4
{11}
50 км 10/3 1000 м
[Sc diur, vesp Ac trans Cs]
-0.4 -9.1 52 -5 -5 холодно 1000.2 912.3
15 19.05 СЗ 4 50 км 10/0
[Ac As Cs]
-1.8 -9.7 55 -7 -7 холодно 1001.3 912.8
18 19.05 З 4 50 км 10/0
[As op]
-2.8 -11.3 52 -8 -8 прохладно 1001.5 912.6
21 19.05 СЗ 5 50 км 10/0
[As op]
-3.4 -8.5 68 -10 -10 очень
холодно
1001.5 912.5 -3.4
00 20.05 СЗ 5 20 км осадки на расстоянии {снег} 10/6 1000 м
[Cb cap Ac trans Cs]
-0.9 -7.0 63 -7 -6 очень
холодно
1000.0 911.9 -3.4
03 20.05 СЗ 4 50 км осадки на расстоянии 10/6 1000 м
[Cb cap Cs]
+2.3 -6.0 54 -2 +1 очень
холодно
997.6 910.8
06 20.05 СЗ 6
{13}
50 км осадки на расстоянии 10/6 1000 м
[Cb cap Ac As]
+1.3 -8.4 48 -4 -4 очень
холодно
997.8 910.5
09 20.05 СЗ 6
{11}
50 км 10/8 1000 м
[Cb cap Ac As]
+0.1 -7.0 59 -6 -6 очень
холодно
998.9 911.2 +3.2 0.0
12 20.05 З 5
{11}
20 км осадки на расстоянии 10/8 960 м
[Cb cap Ac As]
-2.3 -7.4 68 -9 -9 очень
холодно
1000.8 912.2
15 20.05 З 5 4000 м слабый ливневой снег {метель} 10/10 1000 м
[Cb cap]
-4.6 -6.2 89 -12 -12 очень
холодно
1001.5 912.2
18 20.05 З 6-10
{10}
50 км {ливн. осадки, метель} 10/8 1000 м
[Sc diur, vesp Ac trans Ci fib]
-4.8 -7.2 83 -13 -13 очень
холодно
1001.0 911.6
21 20.05 З 6
{10}
50 км 10/3 1000 м
[Sc As trans]
-3.7 -7.0 78 -11 -11 очень
холодно
1000.7 911.8 -4.9 0.2 2
00 21.05 СЗ 6 20 км в посл. час снег 10/1 600 м
[Frnb As trans Cs]
-0.1 -4.7 71 -6 -5 очень
холодно
999.4 911.6
03 21.05 СЗ 5 20 км слабый снег 10/3 600 м
[Frnb As op Cs]
+1.3 -3.5 70 -4 -2 очень
холодно
998.6 911.4
06 21.05 СЗ 5 20 км слабый ливневой снег 10/5 1000 м
[Cb cap As trans]
+1.4 -1.5 81 -4 -3 очень
холодно
999.0 911.7
09 21.05 С 3
{10}
50 км осадки на расстоянии {ливн. осадки} 10/9 1000 м
[Cb cap Cs]
+3.7 -5.2 52 +1 +1 прохладно 999.0 912.4 +4.0 0.1
12 21.05 СЗ 5 50 км осадки на расстоянии 10/8 1000 м
[Cb cap Cs]
+1.0 -4.6 66 -4 -4 холодно 1001.4 913.8
15 21.05 СЗ 5 50 км осадки на расстоянии 6/5 1000 м
[Cb cap Ci fib]
-0.9 -7.0 63 -7 -7 холодно 1002.5 914.2
18 21.05 З 5 50 км 8/4 1000 м
[Cb cap Ci fib]
-2.5 -7.7 67 -9 -9 холодно 1004.5 915.5
21 21.05 З 5 50 км 10/4 1000 м
[Sc Cs]
-0.4 -7.1 61 -6 -5 холодно 1004.7 916.4 -2.8
00 22.05 СЗ 3 50 км 8/1 1000 м
[Cu Sc Ac trans Ci fib]
+4.7 -6.1 45 +2 +6 прохладно 1003.7 916.9
03 22.05 СЗ 2 50 км осадки на расстоянии 8/8 1000 м
[Cb cap]
+8.2 -4.1 42 +7 +9 по сезону 1002.5 917.0
06 22.05 С 2
{11}
50 км осадки на расстоянии 8/8 1000 м
[Cb cap]
+7.5 -4.7 42 +6 +8 прохладно 1002.7 916.9
09 22.05 В 1
{10}
20 км осадки на расстоянии 8/8 1000 м
[Cb cap]
+8.1 -2.5 47 +8 +8 по сезону 1003.7 918.0 +9.8
12 22.05 З 2 50 км осадки на расстоянии 8/8 1000 м
[Cb cap]
+3.4 -1.6 70 +1 +1 по сезону 1006.3 919.0
15 22.05 З 1 50 км осадки на расстоянии 9/9 1000 м
[Cb cap]
+2.9 -3.3 64 +2 +2 по сезону 1007.3 919.8
18 22.05 ЮЗ 1 50 км осадки на расстоянии 10/9 1000 м
[Cb cap Ac trans]
+1.2 -3.7 70 -0 -0 по сезону 1009.1 921.0
21 22.05 СВ 1 50 км осадки на расстоянии 9/9 1000 м
[Cb cap]
+3.7 -3.3 60 +3 +3 по сезону 1009.3 921.9 +0.8
00 23.05 В 2 50 км осадки на расстоянии 8/8 1000 м
[Cb cap]
+6.2 -2.7 53 +4 +6 по сезону 1008.7 922.1
03 23.05 СЗ 2 50 км в посл. час ливневой дождь 9/8 1470 м
[Cb cap Ci fib]
+7.2 -2.2 51 +6 +8 по сезону 1008.2 921.9
06 23.05 З 4 50 км {снег} 8/8 1000 м
[Cb cap Ci fib]
+8.8 -2.5 45 +6 +7 прохладно 1007.6 921.8
09 23.05 Ю 3 50 км {ливн. осадки} 8/6 1000 м
[Cb cap Ci fib]
+7.8 -2.7 47 +6 +6 по сезону 1008.4 922.3 +9.5 0.0
12 23.05 штиль 0 50 км осадки на расстоянии {ливн. осадки} 3/1 1000 м
[Cb cap Ci fib]
+2.7 -4.6 59 +2 +2 по сезону 1011.5 923.4
15 23.05 ЮЗ 1 50 км 3/1 1000 м
[Sc Ci fib]
-2.1 -4.2 86 -4 -4 прохладно 1013.7 924.1
18 23.05 штиль 0 50 км 3/1 1000 м
[Sc Ci fib]
-4.5 -5.8 91 -6 -5 прохладно 1015.0 924.5
21 23.05 СВ 2 50 км 3/0
[Ci fib]
+3.4 -4.0 58 +1 +4 по сезону 1012.0 924.3 -5.0
00 24.05 ЮВ 2 50 км 3/0
[Ci fib]
+10.0 -3.8 38 +9 +18 по сезону 1008.7 923.1
03 24.05 СВ 3 50 км 3/3 1000 м
[Cu hum Ci fib]
+12.7 -1.7 37 +12 +19 тепло 1005.8 921.4
06 24.05 З 2 50 км 1/1 1000 м
[Cu hum]
+15.3 -3.8 27 +15 +22 тепло 1003.6 920.0
09 24.05 ЮЗ 2 50 км 3/1 1000 м
[Sc diur, vesp Ci fib]
+14.8 -3.3 28 +15 +16 тепло 1002.6 918.9 +15.8
12 24.05 З 2 50 км 3/0
[Ci fib]
+9.0 -2.2 45 +8 +8 тепло 1004.1 918.6
15 24.05 Ю 4 50 км 3/0
[Ci fib]
+6.7 -3.8 47 +4 +4 по сезону 1004.3 918.3
18 24.05 ЮВ 4 50 км 8/3 1000 м
[Cb cap Ci fib]
+7.2 -5.0 42 +4 +4 тепло 1003.2 917.2

 

Местоположение метеостанции Оймякон (Якутия, Россия): широта 63.25 долгота 143.10 высота над уровнем моря 740 м.

В архиве по умолчанию представлена погода в Оймяконе за последнюю неделю. Архивные данные за месяц целиком и за предыдущие месяцы, начиная с января 2011 года, Вы можете получить, выбрав интересующий диапазон дат из раскрывающегося списка и нажав кнопку "Ввод!".

Внимание! Время в таблицах - всемирное. Для получения местного времени необходимо прибавить поправку, которая в Оймяконе равна 10 ч.

Смотрите также архив погоды в соседних городах и на ближайших метеорологических станциях:

Погода в Агаякане (Якутия, Россия) (71 км)
Погода в Юртах (Якутия, Россия) (110 км)
Погода в Делянкире (Якутия, Россия) (140 км)
Погода в Усть-Нере (Якутия, Россия) (142 км)
Погода в Восточной (Якутия, Россия) (175 км)
Погода в Сусумане (Магаданская область, Россия) (258 км)
Погода в Колымской (Магаданская область, Россия) (278 км)
Погода в Уеге (Хабаровский край, Россия) (282 км)
Погода в Теплом Ключе (Якутия, Россия) (322 км)
Погода в Ягодной (Магаданская область, Россия) (340 км)

Пояснения к столбцам:

Ветер - указаны скорость ветра в м/с - средняя за 10 мин, порывы в срок и между сроками (в фигурных скобках) и направление, откуда дует ветер: С - северный, СВ - северо-восточный, В - восточный, ЮВ - юго-восточный, Ю - южный, ЮЗ - юго-западный, З - западный, СЗ - северо-западный.
Видимость - горизонтальная дальность видимости в метрах или километрах. При видимости от 1 до 10 км при отсутствии осадков обычно наблюдается дымка, при ухудшении видимости до 1 км и менее - туман. В сухую погоду видимость может ухудшаться дымом, пылью или мглою.
Явления - указаны атмосферные явления, наблюдавшиеся в срок или в последний час перед сроком; фигурными скобками обозначены явления, наблюдавшиеся между сроками (за 1-3 часа до срока); квадратными скобками обозначены град или гололедные отложения с указанием их диаметра в мм.
Облачность - указаны через наклонную черту общая и нижняя облачность в баллах и высота нижней границы облаков в метрах; квадратными скобками обозначены формы облаков: Ci - перистые, Cs - перисто-слоистые, Cc - перисто-кучевые, Ac - высококучевые, As - высокослоистые, Sc - слоисто-кучевые, Ns - слоисто-дождевые, Cu - кучевые, Cb - кучево-дождевые. Подробнее классификацию облаков см. в Атласе облаков (PDF).
T - Температура воздуха - температура, измеренная на высоте 2 м над землей.
Td - Температура точки росы - температура, при понижении до которой содержащийся в воздухе водяной пар достигнет насыщения.
f - Относительная влажность воздуха - влажноcть воздуха, измеренная на высоте 2 м над землей.
Te - Эффективная температура - температура, которую ощущает одетый по сезону человек в тени. Характеристика душности погоды. При расчете учитывается влияние влажности воздуха и скорости ветра на теплоощущения человека.
Tes - Эффективная температура на солнце - температура, которую ощущает человек, с поправкой на солнечный нагрев. Характеристика знойности погоды. Зависит от высоты солнца над горизонтом, облачности и скорости ветра. Ночью, в пасмурную погоду, а также при ветре 12 м/с и более поправка равна нулю.
P - Атмосферное давление - приведенное к уровню моря атмосферное давление.
Po - Атмосферное давление - измеренное на уровне метеостанции атмосферное давление.
Tmin - Минимальная температура - минимум температуры воздуха на высоте 2 м над землей.
Tmax - Максимальная температура - максимум температуры воздуха на высоте 2 м над землей.
R - Количество осадков - Количество выпавших осадков за период времени, мм. При наведении курсора мыши на число - период времени, за который выпало указанное количество осадков.
R24 - Количество осадков - Количество выпавших осадков за 24 часа, мм.
S - Снежный покров - Высота снежного покрова, см. При наведении курсора мыши на число - состояние снежного покрова и степень покрытия местности в баллах.